Location: Newark
(35.1044°N, 77.3364°W)
Time: 21:48:13
(UTC+00:00)

Hubble Space Telescope - Visible Passes

Search period start: 12 December 2019 00:00
Search period end: 22 December 2019 00:00
Orbit: 536 x 540 km, 28.5° (Epoch: 11 December)

Date Brightness Start Highest point End Pass type
(mag) Time Alt. Az. Time Alt. Az. Time Alt. Az.
13 Dec 3.7 10:11:02 10° S 10:11:59 11° SSE 10:12:55 10° SE visible
14 Dec 3.4 09:59:42 11° S 10:01:16 13° SSE 10:03:15 10° SE visible
14 Dec 2.7 11:38:21 10° SW 11:41:53 27° S 11:45:26 10° ESE visible
15 Dec 3.2 09:50:11 16° SSE 09:50:33 16° SSE 09:53:06 10° ESE visible
15 Dec 2.5 11:27:36 10° SW 11:31:13 30° S 11:34:51 10° ESE visible
16 Dec 3.2 09:40:33 18° SSE 09:40:33 18° SSE 09:42:46 10° ESE visible
16 Dec 2.3 11:16:53 10° WSW 11:20:33 31° S 11:24:15 10° ESE visible
17 Dec 3.4 09:30:48 17° SE 09:30:48 17° SE 09:32:21 10° ESE visible
17 Dec 2.2 11:06:12 10° WSW 11:09:55 32° S 11:13:37 10° ESE visible
18 Dec 3.7 09:20:58 14° ESE 09:20:58 14° ESE 09:21:51 10° ESE visible
18 Dec 2.1 10:56:19 14° WSW 10:59:15 32° S 11:02:58 10° ESE visible
19 Dec 4.0 09:11:05 11° ESE 09:11:05 11° ESE 09:11:18 10° ESE visible
19 Dec 2.1 10:46:26 19° SW 10:48:35 32° S 10:52:18 10° ESE visible
20 Dec 2.1 10:36:30 24° SW 10:37:56 31° S 10:41:35 10° ESE visible
21 Dec 2.1 10:26:32 27° SSW 10:27:16 29° S 10:30:52 10° SE visible
